Date String (YYYY-MM-DD hh:mm:ss) UTC,Instrument flags,Ambient pressure (hPa),Sample flow (lpm),Bypass flow (lpm),Sample temperature (°C),Ambient temperature (°C),ASC tube jacket temperature (°C),LED temperature (°C),Box temperature (°C),Sample RH (%),Span deviation,Mass concentration (μg/m³),Mass concentration (μg/m³),Mass concentration (μg/m³)
DateTimeUTC,F1_M11,P_M11,Q1_M11,Q2_M11,T1_M11,T2_M11,T3_M11,T4_M11,T5_M11,U1_M11,ZSPAN_M11,X0_M11,X2_M11,X1_M11
2023-01-12 05:00:00,,0829.1,4.99,0.00,22.4,21.2,00.0,31.3,24.1,19.6,-001.9,0014.64,0011.68,0011.48
2023-01-12 05:01:00,,0829.1,5.00,0.00,22.4,21.1,00.0,31.3,24.2,19.7,-002.0,0014.80,0011.79,0011.59
2023-01-12 05:02:00,,0829.2,5.00,0.00,22.4,21.1,00.0,31.3,24.2,19.6,-001.9,0014.91,0011.88,0011.69
2023-01-12 05:03:00,,0829.2,4.99,0.00,22.4,21.1,00.0,31.3,24.2,19.6,-001.9,0015.00,0011.97,0011.79
2023-01-12 05:04:00,,0829.3,5.00,0.00,22.4,21.0,00.0,31.3,24.2,19.6,-002.0,0015.11,0012.06,0011.90
2023-01-12 05:05:00,,0829.3,4.99,0.00,22.4,21.0,00.0,31.3,24.2,19.6,-001.9,0015.27,0012.18,0012.01
2023-01-12 05:06:00,,0829.3,5.00,0.00,22.4,21.0,00.0,31.3,24.2,19.6,-001.8,0015.35,0012.25,0012.08
2023-01-12 05:07:00,,0829.3,5.00,0.00,22.4,21.0,00.0,31.3,24.1,19.6,-001.8,0015.43,0012.29,0012.12
2023-01-12 05:08:00,,0829.2,5.00,0.00,22.4,21.0,00.0,31.3,24.1,19.7,-001.9,0015.49,0012.31,0012.14
2023-01-12 05:09:00,,0829.3,5.00,0.00,22.4,21.0,00.0,31.3,24.1,19.6,-002.0,0015.44,0012.28,0012.11
2023-01-12 05:10:00,,0829.2,5.00,0.00,22.4,21.0,00.0,31.3,24.2,19.6,-002.2,0015.46,0012.30,0012.13
2023-01-12 05:11:00,,0829.2,5.00,0.00,22.4,21.0,00.0,31.2,24.2,19.6,-002.3,0015.47,0012.29,0012.13
2023-01-12 05:12:00,,0829.2,4.98,0.00,22.4,21.0,00.0,31.2,24.2,19.6,-002.3,0015.39,0012.24,0012.09
2023-01-12 05:13:00,,0829.3,4.99,0.00,22.4,21.0,00.0,31.2,24.2,19.6,-002.3,0015.32,0012.20,0012.06
2023-01-12 05:14:00,,0829.4,4.99,0.00,22.4,21.0,00.0,31.2,24.2,19.6,-002.2,0015.30,0012.20,0012.06
2023-01-12 05:15:00,,0829.5,4.99,0.00,22.4,21.0,00.0,31.2,24.2,19.6,-002.2,0015.31,0012.20,0012.06
2023-01-12 05:16:00,,0829.5,5.01,0.00,22.4,21.0,00.0,31.2,24.2,19.6,-002.4,0015.28,0012.16,0012.03
2023-01-12 05:17:00,,0829.5,5.02,0.00,22.3,21.0,00.0,31.2,24.1,19.6,-002.5,0015.35,0012.17,0012.04
2023-01-12 05:18:00,,0829.3,5.00,0.00,22.3,20.9,00.0,31.2,24.1,19.7,-002.6,0015.30,0012.15,0012.02
2023-01-12 05:19:00,,0829.4,5.00,0.00,22.3,20.9,00.0,31.2,24.1,19.7,-002.5,0015.21,0012.11,0012.00
2023-01-12 05:20:00,,0829.3,5.00,0.00,22.3,20.9,00.0,31.2,24.1,19.7,-002.3,0015.13,0012.06,0011.96
2023-01-12 05:21:00,,0829.5,5.00,0.00,22.3,20.9,00.0,31.2,24.1,19.6,-002.3,0015.03,0012.01,0011.90
2023-01-12 05:22:00,,0829.5,5.00,0.00,22.3,21.0,00.0,31.2,24.1,19.6,-002.2,0014.95,0011.98,0011.87
2023-01-12 05:23:00,,0829.5,5.00,0.00,22.3,21.0,00.0,31.2,24.1,19.6,-002.2,0014.96,0012.00,0011.88
2023-01-12 05:24:00,,0829.4,5.00,0.00,22.3,21.0,00.0,31.2,24.1,19.6,-002.3,0015.11,0012.08,0011.94
2023-01-12 05:25:00,,0829.4,5.01,0.00,22.3,21.0,00.0,31.2,24.1,19.7,-002.4,0015.25,0012.16,0012.01
2023-01-12 05:26:00,,0829.5,5.01,0.00,22.3,21.0,00.0,31.2,24.1,19.7,-002.3,0015.40,0012.23,0012.06
2023-01-12 05:27:00,,0829.5,5.00,0.00,22.3,21.0,00.0,31.2,24.1,19.7,-002.0,0015.54,0012.30,0012.12
2023-01-12 05:28:00,,0829.5,5.01,0.00,22.3,21.0,00.0,31.2,24.1,19.7,-001.9,0015.53,0012.32,0012.14
2023-01-12 05:29:00,,0829.5,5.00,0.00,22.3,21.0,00.0,31.2,24.1,19.7,-002.0,0015.54,0012.32,0012.15
2023-01-12 05:30:00,,0829.5,5.01,0.00,22.3,21.0,00.0,31.2,24.1,19.6,-002.1,0015.60,0012.35,0012.17
2023-01-12 05:31:00,,0829.5,5.01,0.00,22.3,21.0,00.0,31.2,24.1,19.6,-002.4,0015.68,0012.39,0012.22
2023-01-12 05:32:00,,0829.5,4.99,0.00,22.3,21.0,00.0,31.2,24.1,19.6,-002.5,0015.82,0012.47,0012.29
2023-01-12 05:33:00,,0829.5,4.99,0.00,22.3,21.0,00.0,31.2,24.1,19.6,-002.5,0016.11,0012.57,0012.37
2023-01-12 05:34:00,,0829.6,5.00,0.00,22.3,21.0,00.0,31.2,24.1,19.6,-002.6,0016.76,0012.63,0012.42
2023-01-12 05:35:00,,0829.5,5.00,0.00,22.3,21.0,00.0,31.2,24.1,19.6,-002.7,0016.80,0012.66,0012.47
2023-01-12 05:36:00,,0829.5,5.01,0.00,22.3,21.0,00.0,31.2,24.1,19.6,-002.7,0016.82,0012.68,0012.49
2023-01-12 05:37:00,,0829.6,5.01,0.00,22.3,21.0,00.0,31.2,24.1,19.6,-002.8,0016.77,0012.67,0012.49
2023-01-12 05:38:00,,0829.5,4.99,0.00,22.3,21.0,00.0,31.2,24.1,19.7,-003.0,0016.78,0012.69,0012.50
2023-01-12 05:39:00,,0829.6,5.00,0.00,22.3,21.0,00.0,31.2,24.1,19.6,-003.0,0016.86,0012.74,0012.56
2023-01-12 05:40:00,,0829.7,5.01,0.00,22.3,21.0,00.0,31.2,24.1,19.6,-002.9,0016.98,0012.80,0012.60
2023-01-12 05:41:00,,0829.7,5.01,0.00,22.3,21.0,00.0,31.2,24.1,19.5,-002.9,0017.08,0012.84,0012.62
2023-01-12 05:42:00,,0829.7,5.00,0.00,22.3,21.0,00.0,31.2,24.1,19.5,-002.9,0017.16,0012.88,0012.66
2023-01-12 05:43:00,,0829.6,5.00,0.00,22.3,21.0,00.0,31.2,24.1,19.5,-002.8,0017.28,0012.96,0012.73
2023-01-12 05:44:00,,0829.6,4.99,0.00,22.3,21.1,00.0,31.2,24.1,19.5,-002.7,0017.34,0012.99,0012.77
2023-01-12 05:45:00,,0829.7,4.99,0.00,22.3,21.1,00.0,31.2,24.1,19.5,-002.7,0016.76,0013.00,0012.80
2023-01-12 05:46:00,,0829.7,5.01,0.00,22.3,21.1,00.0,31.2,24.1,19.6,-002.6,0016.85,0013.04,0012.82
2023-01-12 05:47:00,,0829.6,5.00,0.00,22.3,21.1,00.0,31.1,24.1,19.6,-002.7,0016.93,0013.08,0012.88
2023-01-12 05:48:00,,0829.8,5.00,0.00,22.3,21.0,00.0,31.1,24.1,19.6,-002.7,0017.04,0013.14,0012.94
2023-01-12 05:49:00,,0829.6,5.01,0.00,22.3,21.0,00.0,31.1,24.1,19.5,-002.5,0017.09,0013.16,0012.96
2023-01-12 05:50:00,,0829.8,5.01,0.00,22.3,21.0,00.0,31.1,24.1,19.5,-002.4,0017.14,0013.19,0012.99
2023-01-12 05:51:00,,0829.8,5.00,0.00,22.3,21.0,00.0,31.1,24.1,19.4,-002.4,0017.20,0013.24,0013.05
2023-01-12 05:52:00,,0829.7,5.00,0.00,22.3,21.0,00.0,31.1,24.1,19.4,-002.3,0017.35,0013.32,0013.14
2023-01-12 05:53:00,,0829.8,5.00,0.00,22.3,21.0,00.0,31.1,24.1,19.3,-002.3,0017.48,0013.38,0013.19
2023-01-12 05:54:00,,0829.7,5.00,0.00,22.3,21.0,00.0,31.1,24.1,19.2,-002.3,0017.51,0013.39,0013.22
2023-01-12 05:55:00,,0829.7,5.00,0.00,22.3,21.1,00.0,31.1,24.1,19.2,-002.4,0017.54,0013.43,0013.26
2023-01-12 05:56:00,,0829.8,5.01,0.00,22.4,21.8,00.0,31.1,24.3,19.1,-002.3,0017.61,0013.47,0013.30
2023-01-12 05:57:00,,0829.8,4.99,0.00,22.5,22.6,00.0,31.1,24.5,19.0,-002.1,0017.59,0013.47,0013.30
2023-01-12 05:58:00,,0829.8,4.99,0.00,22.5,22.7,00.0,31.2,24.6,18.8,-002.1,0017.58,0013.46,0013.28
2023-01-12 05:59:00,,0829.9,5.00,0.00,22.6,22.4,00.0,31.2,24.6,18.6,-002.0,0017.58,0013.43,0013.23
